Terminal Aerodrome Forecast
Issued by NWS

Home | Current Version | Previous Version | Text Only | Print | Product List | Glossary On
Versions: 1 2 3 4 5 6 7 8 9 10 11 12 13 14 15 16 17 18 19 20 21 22 23 24 25 26
000
FTUS45 KRIW 012300
TAFPNA
TAF
KPNA 012327Z 0200/0224 29014G22KT P6SM VCSH BKN045
     FM020100 30011KT P6SM SCT040
     FM020600 30008KT P6SM SKC
     FM021900 29020G30KT P6SM SCT050
      AMD LTD TO CLD VIS AND WIND=

USA.gov is the U.S. government's official web portal to all federal, state and local government web resources and services.